[[{"header":{"parameterUnit":"m.s-1","parameterCategory":1,"la1":30.2991,"la2":30.254,"lo1":-89.0895,"lo2":-89.0444,"dy":0.0017,"dx":0.0017,"nx":28,"ny":28,"refTime":"2024-06-08T21:00:00:Z","depth":0,"parameterNumber":2,"parameterNumberName":"U-component_of_WINDS"},"data":[0,0,0,0,0,0,0,0,0,0,0,0,0,0,0,0,0,0,0,0,0,0,0,0,0,0,0,0,0,0,0,0,0,0,0,0,0,0,0,0,0,0,0,0,0,0,0,0,0,0,0,0,0,0,0,0,0,0,2.9035,2.9037,0,2.9165,2.9166,2.9167,2.9185,2.9184,2.9183,2.9182,2.9319,2.9324,2.9329,0,0,0,0,0,0,0,0,0,0,0,0,0,2.8811,2.8815,2.9035,2.9037,2.9038,2.9164,2.9166,2.9168,2.9185,2.9184,2.9182,2.9181,2.9318,2.9323,2.9329,0,0,0,0,0,0,0,0,0,0,0,0,0,2.8921,2.8816,2.9035,2.9062,2.9066,2.9164,2.9166,2.9168,2.9186,2.9184,2.9182,2.918,2.9316,2.9323,2.933,2.9411,0,0,2.9352,2.9355,0,0,0,0,0,0,0,0,2.8915,2.8929,2.9057,2.9061,2.9065,2.9157,2.9137,2.925,2.9186,2.914,2.9181,2.9179,2.9267,2.9278,2.9307,2.9418,2.9424,2.9353,2.9357,2.936,2.9362,0,0,0,0,0,0,0,2.8907,2.8924,2.9087,2.9058,2.9064,2.907,2.9084,2.9159,2.9213,2.9144,2.9146,2.9161,2.9269,2.93,2.931,2.9426,2.9352,2.9359,2.9363,2.9366,2.9614,2.9616,0,0,0,0,0,0,2.8893,2.8917,2.9082,2.909,2.8983,2.9076,2.9091,2.9129,2.9212,2.9223,2.9162,2.9161,2.9288,2.9302,2.9315,2.9417,2.936,2.9367,2.9371,2.9611,2.9614,2.9617,0,0,0,0,0,0,2.8889,2.8908,2.9077,2.9004,2.9026,2.9082,2.9124,2.9133,2.9163,2.9225,2.9236,2.9183,2.9287,2.9305,2.9388,2.9422,2.937,2.9377,2.9609,2.9612,2.9615,2.9622,0,0,0,0,0,0,2.8882,2.8906,2.8936,2.9005,2.903,2.9146,2.9126,2.9137,2.9175,2.9175,2.9248,2.9258,2.9287,2.9377,2.9395,2.9431,2.9382,2.9606,2.961,2.9614,2.9619,2.9625,2.963,0,0,0,0,0,2.8874,2.8933,2.8937,2.8957,2.9068,2.9147,2.9162,2.9193,2.9178,2.9209,2.925,2.9256,2.9416,2.9385,2.9405,2.9445,2.9604,2.9609,2.9614,2.9616,2.9624,2.963,0,0,0,0,0,0,2.8868,2.8942,2.8948,2.903,2.9082,2.915,2.9191,2.92,2.9258,2.9256,2.9293,2.931,2.9391,2.9427,2.9391,2.953,2.9509,2.9518,2.9503,2.9511,2.9517,2.9507,2.9388,0,0,0,0,0,2.8876,2.8932,2.8995,2.9062,2.9088,2.9135,2.917,2.919,2.9246,2.9268,2.9315,2.937,2.9434,2.9474,2.9536,2.9624,2.9642,2.9662,2.9667,2.9672,2.968,2.9731,2.9742,2.9633,2.9633,2.9633,0,0,2.8893,2.8941,2.8974,2.9062,2.9104,2.9164,2.9153,2.9216,2.9262,2.9279,2.9359,2.9396,2.9461,2.9547,2.9588,2.9579,2.9714,2.9678,2.9681,2.9687,2.9738,2.9748,2.9757,2.9637,2.9636,2.9635,0,0,2.8956,2.8997,2.9058,2.9101,2.9165,2.9196,2.9211,2.9278,2.9303,2.9384,2.9399,2.9455,2.9562,2.9608,2.9646,2.9729,2.9737,2.9748,2.9778,2.9828,2.9837,2.9845,2.9876,2.9886,2.9756,2.9756,2.9756,0,2.897,2.9058,2.9089,2.9152,2.9191,2.9208,2.9272,2.9313,2.9395,2.9423,2.9411,2.9548,2.9593,2.9691,2.9712,2.9741,2.9761,2.974,2.9833,2.9841,2.9849,2.9879,2.9891,2.9756,2.9756,2.9756,2.9756,0,2.9074,2.9135,2.9177,2.9255,2.9299,2.9362,2.9405,2.9446,2.9463,2.9496,2.958,2.9635,2.9709,2.9734,2.975,2.9836,2.9829,2.9825,2.9805,2.9859,2.9889,2.99,2.9758,2.9757,2.9757,2.9757,0,0,2.9134,2.9229,2.9244,2.928,2.9354,2.9403,2.9469,2.9539,2.9575,2.9632,2.9689,2.978,2.9778,2.9821,2.9843,2.9887,2.9952,2.9879,2.9881,2.9891,3.0052,3.0054,3.0067,2.9958,2.996,2.9962,3.0047,0,2.9206,2.9321,2.9352,2.945,2.9509,2.9528,2.9585,2.9638,2.9671,2.9728,2.9766,2.9831,2.9821,2.9848,2.9892,2.9934,2.9985,2.9929,3.0014,3.0017,2.9997,3.0082,3.0085,3.0161,3.0058,3.006,3.0061,0,2.9305,2.9363,2.9467,2.9534,2.956,2.9611,2.968,2.9733,2.9794,2.9816,2.9864,2.9883,2.9955,2.9931,3.0032,2.9994,3.0031,3.0057,3.0061,3.007,3.0042,3.0095,3.0187,3.0198,3.0079,3.0078,3.0077,0,2.9341,2.9445,2.9521,2.9551,2.9632,2.9667,2.9703,2.9762,2.9804,2.9865,2.9892,2.9961,2.9999,3.0054,3.0092,3.007,3.019,3.0169,3.0212,3.0211,3.0236,3.0234,3.0336,3.0259,3.0259,3.0259,3.0259,0,2.9418,2.9481,2.9538,2.9585,2.9658,2.9694,2.9765,2.9802,2.9855,2.9911,2.9932,2.9985,3.0032,3.0092,3.0123,3.0203,3.022,3.0241,3.0248,3.0239,3.0237,3.0264,3.026,3.0262,3.0261,3.0261,3.026,0,2.947,2.951,2.9594,2.9664,2.9683,2.9734,2.9795,2.9843,2.9877,2.9948,2.9967,3.0023,3.0095,3.0138,3.023,3.0251,3.0339,3.0344,3.0318,3.0322,3.0362,3.0358,3.0486,3.0505,3.0415,3.0415,3.0416,0,2.9516,2.9565,2.9641,2.9679,2.9715,2.9777,2.9819,2.9858,2.9901,2.9976,3.0016,3.0089,3.0149,3.0264,3.0313,3.0384,3.0392,3.0432,3.0402,3.0392,3.0394,3.039,3.0396,3.0437,3.0437,3.0438,3.0438,0,2.9596,2.9614,2.9673,2.974,2.979,2.9845,2.99,2.9931,2.998,3.0028,3.0101,3.0148,3.0241,3.0315,3.039,3.0429,3.0443,3.0447,3.0461,3.0453,3.0436,3.0446,3.0332,3.0444,3.0444,3.0443,3.0443,3.0443,2.9647,2.9693,2.9753,2.9819,2.9865,2.9916,2.9965,3.0006,3.0067,3.0145,3.0165,3.0242,3.0305,3.0407,3.0449,3.0511,3.0505,3.0525,3.053,3.0535,3.0536,3.0425,3.0525,3.0525,3.0525,3.0525,3.0525,0,2.9729,2.9769,2.9829,2.9905,2.9958,2.9965,3.0027,3.0072,3.0139,3.0196,3.0255,3.034,3.0412,3.0468,3.0542,3.0581,3.059,3.06,3.0597,3.0607,3.0537,3.0518,3.0592,3.0592,3.0592,3.0592,3.0592,3.0592,2.9777,2.9855,2.988,2.9982,3.0022,3.0097,3.0132,3.0181,3.0226,3.032,3.0379,3.0415,3.0472,3.0551,3.0618,3.0633,3.066,3.0669,3.0685,3.0619,3.0611,3.0604,3.0587,3.0674,3.0674,3.075,3.075,3.0751]},{"header":{"parameterUnit":"m.s-1","parameterCategory":1,"la1":30.2991,"la2":30.254,"lo1":-89.0895,"lo2":-89.0444,"dy":0.0017,"dx":0.0017,"nx":28,"ny":28,"refTime":"2024-06-08T21:00:00:Z","depth":0,"parameterNumber":3,"parameterNumberName":"V-component_of_WINDS"},"data":[0,0,0,0,0,0,0,0,0,0,0,0,0,0,0,0,0,0,0,0,0,0,0,0,0,0,0,0,0,0,0,0,0,0,0,0,0,0,0,0,0,0,0,0,0,0,0,0,0,0,0,0,0,0,0,0,0,0,1.9964,1.9965,0,2.0063,2.0064,2.0065,2.0054,2.0053,2.0051,2.005,2.0149,2.0152,2.0157,0,0,0,0,0,0,0,0,0,0,0,0,0,1.9762,1.9766,1.9964,1.9965,1.9967,2.0063,2.0064,2.0065,2.0055,2.0053,2.0051,2.0049,2.0147,2.0152,2.0157,0,0,0,0,0,0,0,0,0,0,0,0,0,1.9854,1.9767,1.9964,1.9973,1.9975,2.0062,2.0064,2.0066,2.0055,2.0053,2.005,2.0048,2.0146,2.0152,2.0158,2.0242,0,0,2.0176,2.0179,0,0,0,0,0,0,0,0,1.9849,1.9861,1.997,1.9972,1.9975,2.0044,2.0029,2.0125,2.0056,2.0024,2.005,2.0047,2.0115,2.0124,2.0148,2.0247,2.0251,2.0177,2.0181,2.0183,2.0185,0,0,0,0,0,0,0,1.9842,1.9857,2.0003,1.9972,1.9974,1.997,1.9981,2.0047,2.0082,2.0027,2.0026,2.0038,2.0116,2.0142,2.015,2.0253,2.0177,2.0182,2.0186,2.0188,2.0421,2.0424,0,0,0,0,0,0,1.9834,1.9852,2.0,2.0006,1.9905,1.9976,1.9988,2.0024,2.0081,2.0088,2.004,2.0037,2.0132,2.0143,2.0153,2.0253,2.0183,2.0189,2.0192,2.0419,2.0422,2.0425,0,0,0,0,0,0,1.983,1.9848,1.9996,1.9929,1.9947,1.9982,2.0023,2.0027,2.0053,2.0091,2.0097,2.006,2.0131,2.0145,2.0219,2.0256,2.0192,2.0197,2.0416,2.042,2.0423,2.0454,0,0,0,0,0,0,1.9824,1.9846,1.988,1.993,1.9951,2.0062,2.0025,2.0031,2.0063,2.0061,2.0111,2.0117,2.013,2.021,2.0225,2.0263,2.0202,2.0413,2.0418,2.0422,2.045,2.0459,2.0466,0,0,0,0,0,1.9817,1.9885,1.9882,1.99,1.9994,2.0064,2.0076,2.009,2.0067,2.01,2.0124,2.0116,2.025,2.0218,2.0235,2.0275,2.0411,2.0416,2.0422,2.0447,2.0457,2.0466,0,0,0,0,0,0,1.9839,1.9892,1.9889,1.9975,2.0015,2.0062,2.0105,2.0101,2.0148,2.0144,2.0158,2.017,2.0244,2.0268,2.0231,2.0358,2.0327,2.0336,2.034,2.035,2.0358,2.035,2.0207,0,0,0,0,0,1.9854,1.9907,1.9951,2.0023,2.0043,2.007,2.0101,2.0108,2.015,2.0167,2.0197,2.0236,2.0287,2.032,2.0369,2.0454,2.0463,2.049,2.0498,2.0504,2.0511,2.0554,2.0565,2.0443,2.0443,2.0443,0,0,1.9885,1.9921,1.9954,2.0028,2.006,2.0112,2.0085,2.0143,2.0182,2.0175,2.0247,2.027,2.0315,2.0394,2.0431,2.0416,2.0547,2.0511,2.0516,2.052,2.0561,2.0572,2.0582,2.0447,2.0447,2.0446,0,0,1.9969,2.0003,2.0064,2.0096,2.0145,2.0162,2.0177,2.0224,2.0239,2.0311,2.0306,2.0352,2.044,2.0471,2.0499,2.0591,2.0584,2.0607,2.0647,2.0688,2.0698,2.0706,2.0736,2.0747,2.0614,2.0614,2.0614,0,2.0001,2.0082,2.0097,2.0154,2.0186,2.0182,2.0243,2.0274,2.0335,2.0356,2.0339,2.0447,2.0478,2.0562,2.0584,2.0608,2.0622,2.06,2.0696,2.0704,2.0712,2.0741,2.0752,2.0616,2.0616,2.0616,2.0616,0,2.0118,2.0174,2.0218,2.0276,2.0313,2.0372,2.0394,2.0429,2.0432,2.045,2.0522,2.0558,2.0612,2.0633,2.0638,2.0717,2.0706,2.0693,2.0661,2.0726,2.0752,2.0764,2.0619,2.0619,2.0618,2.0617,0,0,2.0218,2.0282,2.0298,2.0323,2.0375,2.0418,2.0476,2.0529,2.0557,2.0599,2.0646,2.0719,2.0706,2.0737,2.0744,2.0781,2.0847,2.0762,2.0763,2.0774,2.0932,2.094,2.0953,2.0843,2.0845,2.0847,2.0927,0,2.0304,2.0407,2.042,2.0511,2.056,2.0557,2.0607,2.0643,2.0661,2.0705,2.0725,2.0775,2.0755,2.0773,2.081,2.0831,2.0878,2.0826,2.0884,2.0886,2.087,2.0968,2.0977,2.1051,2.0938,2.094,2.0942,0,2.0419,2.0463,2.0558,2.06,2.0621,2.0666,2.0714,2.0757,2.0796,2.0807,2.084,2.0842,2.0899,2.0867,2.0944,2.0908,2.0932,2.0946,2.0949,2.0953,2.0916,2.0971,2.1076,2.1085,2.0959,2.0957,2.0956,0,2.0477,2.0561,2.0628,2.065,2.0702,2.0732,2.0755,2.0792,2.0823,2.0864,2.0883,2.0932,2.0957,2.0993,2.1007,2.0983,2.1082,2.1052,2.109,2.109,2.111,2.1108,2.1216,2.113,2.113,2.113,2.1129,0,2.0571,2.0628,2.0655,2.0696,2.0759,2.0773,2.0835,2.0856,2.0889,2.0932,2.0932,2.0973,2.099,2.1032,2.1044,2.1103,2.1116,2.1124,2.1126,2.1122,2.1121,2.1137,2.1131,2.1133,2.1132,2.1131,2.1131,0,2.0647,2.0667,2.0739,2.0782,2.0793,2.0838,2.0873,2.0911,2.0928,2.0983,2.0996,2.1023,2.1072,2.109,2.1151,2.1158,2.1227,2.1226,2.1213,2.1213,2.1249,2.1244,2.137,2.1385,2.1291,2.1292,2.1293,0,2.0703,2.0747,2.0794,2.0823,2.0846,2.0894,2.0924,2.0939,2.097,2.1016,2.1048,2.1098,2.1138,2.1216,2.124,2.1285,2.1283,2.1324,2.129,2.1284,2.128,2.1276,2.1279,2.133,2.1331,2.1332,2.1332,0,2.0801,2.0808,2.0852,2.0899,2.0935,2.0973,2.1009,2.1033,2.1053,2.1087,2.1138,2.1169,2.1229,2.1277,2.1323,2.1344,2.1341,2.1343,2.1354,2.1349,2.1339,2.1342,2.1227,2.134,2.1339,2.1338,2.1338,2.1338,2.0867,2.0904,2.0942,2.099,2.1019,2.1052,2.1089,2.111,2.1153,2.1204,2.121,2.1263,2.1298,2.136,2.1383,2.1423,2.1412,2.1428,2.1432,2.1435,2.1436,2.1335,2.1432,2.1432,2.1432,2.1432,2.1431,0,2.0961,2.0985,2.1029,2.1079,2.1116,2.1111,2.115,2.1181,2.1228,2.1262,2.13,2.1356,2.1402,2.1429,2.1474,2.1501,2.15,2.1512,2.1509,2.1513,2.1445,2.143,2.1512,2.1512,2.1512,2.1512,2.1512,2.1512,2.1014,2.1076,2.1088,2.1163,2.1186,2.1238,2.126,2.129,2.1317,2.1379,2.1417,2.1435,2.1465,2.1511,2.1552,2.1558,2.1574,2.1586,2.1591,2.1527,2.1518,2.151,2.1496,2.159,2.159,2.1655,2.1656,2.1656]}]]